Погода в Ангарском

Россия / Красноярский край     58°26′17″N   97°08′38″E
темп.,
°C
ветер,
м/с
пор.,
м/с
влажн.,
%
обл.,
%
осадки,
мм/ч
давл.,
гПа
погр.,
м
5 декабря, вс
вс501:00−6з71482100 0.1 10141291
04:00−7з6147891 0.1 10181229
07:00−8з5128198 0.1 10201064
10:00−9зюз31093100 0.1 1021856
13:00−7зюз51182100 0.1 10201244
16:00−8зюз41191100 0.1 1019981
19:00−7юз31095100 1.0 1017692
22:00−6юз31095100 1.2 1014689
6 декабря, пн
пн601:00−5юз31096100 3.1 1012798
04:00−5юз2897100 2.1 1012538
07:00−4ююз1598100 3.8 1012262
10:00−3ю2797100 1.5 1011427
13:00−2юз31097100 3.1 1010564
16:00−1зюз41195100 1.6 1011885
19:000зюз5118796 1.8 1012809
22:00−1зюз4986100 0.0 1014750
7 декабря, вт
вт701:00−2зюз3890100 0.1 1014473
04:00−3ююз2795100 0.1 1014301
07:00−3ю2797100 0.7 1012388
10:00−2ю41096100 1.0 1010630
13:00−1ююз41194100 1.9 1007895
16:00−2юз41187100 0.1 1008900
19:00−2юз41193100 0.3 10081023
22:00−3зюз41189100 0.2 1009903
8 декабря, ср
ср801:00−5зюз51290100 0.3 1011927
04:00−9з61385100 0.1 1015826
07:00−14з51386100 0.1 1020768
10:00−17з5138683 0.0 1024690
13:00−17зюз51388100 0.0 1027773
16:00−17зюз41290100 0.0 1028702
19:00−18зюз3991100 0.1 1029473
22:00−17зюз31094100 0.1 1029712
9 декабря, чт
чт901:00−17з399199 0.2 1030621
04:00−21зюз2597100 0.0 103286
07:00−22зюз399671 0.0 1034224
10:00−21зюз31093100 0.0 1036433
13:00−18зюз41090100 0.0 1036679
16:00−19зюз41089100 0.0 1036608
19:00−20зюз41190100 0.0 1037614
22:00−19юз41191100 0.0 1036598